Stündliche Wetter Czyzowek

Heute, 26 Oktober, Montag

Zeit Temperatur Niederschläge Wind Luftdruck Luftfeuchtigkeit
00:00 +12°C° 0 mm 2 m/S 743 mmHg 87%
01:00 +11°C° 0 mm 1 m/S 743 mmHg 89%
02:00 +11°C° 0 mm 1 m/S 743 mmHg 90%
03:00 +11°C° 0 mm 1 m/S 743 mmHg 91%
04:00 +11°C° 0 mm 1 m/S 743 mmHg 92%
05:00 +10°C° 0 mm 1 m/S 742 mmHg 92%
06:00 +10°C° 0 mm 1 m/S 742 mmHg 92%
07:00 +10°C° 0 mm 1 m/S 742 mmHg 93%
08:00 +11°C° 0 mm 1 m/S 742 mmHg 89%
09:00 +13°C° 0 mm 1 m/S 742 mmHg 85%
10:00 +14°C° 0 mm 1 m/S 742 mmHg 80%
11:00 +14°C° 0.1 mm 1 m/S 742 mmHg 82%
12:00 +14°C° 0.1 mm 1 m/S 742 mmHg 83%
13:00 +13°C° 0.1 mm 1 m/S 742 mmHg 84%
14:00 +13°C° 0.1 mm 2 m/S 742 mmHg 87%
15:00 +12°C° 0.1 mm 2 m/S 742 mmHg 89%
16:00 +11°C° 0.1 mm 3 m/S 742 mmHg 91%
17:00 +12°C° 0.1 mm 2 m/S 742 mmHg 92%
18:00 +10°C° 0.1 mm 2 m/S 743 mmHg 93%
19:00 +11°C° 0.1 mm 1 m/S 743 mmHg 93%
20:00 +11°C° 0 mm 1 m/S 743 mmHg 93%
21:00 +11°C° 0 mm 1 m/S 743 mmHg 93%
22:00 +11°C° 0 mm 1 m/S 743 mmHg 93%
23:00 +11°C° 0 mm 1 m/S 743 mmHg 93%

Morgen, 27 Oktober, Dienstag

Zeit Temperatur Niederschläge Wind Luftdruck Luftfeuchtigkeit
00:00 +10°C° 0 mm 1 m/S 744 mmHg 92%
01:00 +9°C° 0 mm 0 m/S 744 mmHg 91%
02:00 +9°C° 0.4 mm 0 m/S 744 mmHg 92%
03:00 +10°C° 0.4 mm 1 m/S 744 mmHg 93%
04:00 +10°C° 0.4 mm 1 m/S 744 mmHg 94%
05:00 +10°C° 0.5 mm 1 m/S 744 mmHg 94%
06:00 +10°C° 0.5 mm 1 m/S 744 mmHg 94%
07:00 +10°C° 0.5 mm 1 m/S 744 mmHg 95%
08:00 +10°C° 0.4 mm 1 m/S 744 mmHg 95%
09:00 +10°C° 0.4 mm 1 m/S 744 mmHg 94%
10:00 +10°C° 0.4 mm 1 m/S 744 mmHg 94%
11:00 +10°C° 0.7 mm 1 m/S 744 mmHg 94%
12:00 +10°C° 0.7 mm 1 m/S 745 mmHg 94%
13:00 +10°C° 0.7 mm 1 m/S 745 mmHg 94%
14:00 +10°C° 0.4 mm 1 m/S 745 mmHg 93%
15:00 +10°C° 0.4 mm 1 m/S 745 mmHg 92%
16:00 +10°C° 0.4 mm 1 m/S 745 mmHg 91%
17:00 +10°C° 0.1 mm 1 m/S 745 mmHg 91%
18:00 +9°C° 0.1 mm 2 m/S 746 mmHg 90%
19:00 +8°C° 0.1 mm 2 m/S 746 mmHg 89%
20:00 +8°C° 0 mm 2 m/S 746 mmHg 89%
21:00 +8°C° 0 mm 2 m/S 746 mmHg 89%
22:00 +7°C° 0 mm 3 m/S 747 mmHg 88%
23:00 +7°C° 0 mm 3 m/S 747 mmHg 88%

übermorgen, 28 Oktober, Mittwoch

Zeit Temperatur Niederschläge Wind Luftdruck Luftfeuchtigkeit
00:00 +7°C° 0 mm 3 m/S 747 mmHg 88%
01:00 +7°C° 0 mm 3 m/S 747 mmHg 88%
02:00 +7°C° 0 mm 3 m/S 747 mmHg 88%
03:00 +7°C° 0 mm 3 m/S 747 mmHg 87%
04:00 +6°C° 0 mm 4 m/S 747 mmHg 87%
05:00 +6°C° 0 mm 4 m/S 747 mmHg 86%
06:00 +6°C° 0 mm 4 m/S 747 mmHg 84%
07:00 +6°C° 0 mm 4 m/S 747 mmHg 83%
08:00 +7°C° 0 mm 4 m/S 747 mmHg 77%
09:00 +8°C° 0 mm 4 m/S 747 mmHg 71%
10:00 +11°C° 0 mm 4 m/S 747 mmHg 65%
11:00 +11°C° 0 mm 4 m/S 747 mmHg 65%
12:00 +11°C° 0 mm 4 m/S 747 mmHg 65%
13:00 +11°C° 0 mm 4 m/S 747 mmHg 65%
14:00 +11°C° 0 mm 4 m/S 747 mmHg 67%
15:00 +11°C° 0 mm 4 m/S 747 mmHg 68%
16:00 +10°C° 0 mm 4 m/S 746 mmHg 70%
17:00 +10°C° 0 mm 4 m/S 747 mmHg 72%
18:00 +8°C° 0 mm 4 m/S 747 mmHg 74%
19:00 +8°C° 0 mm 4 m/S 747 mmHg 76%
20:00 +8°C° 0 mm 4 m/S 747 mmHg 76%
21:00 +8°C° 0 mm 4 m/S 747 mmHg 77%
22:00 +8°C° 0 mm 4 m/S 747 mmHg 77%
23:00 +8°C° 0 mm 4 m/S 747 mmHg 77%

29 Oktober, Donnerstag

Zeit Temperatur Niederschläge Wind Luftdruck Luftfeuchtigkeit
00:00 +8°C° 0 mm 4 m/S 747 mmHg 77%
01:00 +8°C° 0 mm 4 m/S 747 mmHg 77%
02:00 +10°C° 0 mm 4 m/S 747 mmHg 77%
03:00 +10°C° 0 mm 4 m/S 747 mmHg 76%
04:00 +9°C° 0 mm 5 m/S 747 mmHg 76%
05:00 +9°C° 0 mm 5 m/S 747 mmHg 76%
06:00 +9°C° 0 mm 5 m/S 747 mmHg 77%
07:00 +9°C° 0 mm 5 m/S 747 mmHg 77%
08:00 +10°C° 0.1 mm 6 m/S 748 mmHg 74%
09:00 +11°C° 0.1 mm 6 m/S 748 mmHg 70%
10:00 +12°C° 0.1 mm 7 m/S 748 mmHg 66%
11:00 +12°C° 0.1 mm 7 m/S 749 mmHg 64%
12:00 +13°C° 0.1 mm 6 m/S 749 mmHg 62%
13:00 +14°C° 0.1 mm 6 m/S 749 mmHg 60%
14:00 +13°C° 0.1 mm 5 m/S 749 mmHg 64%
15:00 +12°C° 0.1 mm 4 m/S 750 mmHg 67%
16:00 +11°C° 0.1 mm 3 m/S 750 mmHg 71%
17:00 +11°C° 0 mm 3 m/S 750 mmHg 73%
18:00 +10°C° 0 mm 3 m/S 751 mmHg 76%
19:00 +9°C° 0 mm 3 m/S 751 mmHg 78%
20:00 +9°C° 0 mm 3 m/S 751 mmHg 78%
21:00 +8°C° 0 mm 4 m/S 751 mmHg 78%
22:00 +8°C° 0 mm 4 m/S 751 mmHg 79%
23:00 +8°C° 0 mm 4 m/S 751 mmHg 78%

30 Oktober, Freitag

Zeit Temperatur Niederschläge Wind Luftdruck Luftfeuchtigkeit
00:00 +10°C° 0 mm 4 m/S 751 mmHg 78%
01:00 +10°C° 0 mm 4 m/S 751 mmHg 78%
02:00 +9°C° 0 mm 5 m/S 751 mmHg 77%
03:00 +9°C° 0 mm 5 m/S 751 mmHg 77%
04:00 +10°C° 0 mm 5 m/S 751 mmHg 77%
05:00 +10°C° 0 mm 5 m/S 751 mmHg 78%
06:00 +10°C° 0 mm 5 m/S 751 mmHg 78%
07:00 +10°C° 0 mm 5 m/S 751 mmHg 79%
08:00 +12°C° 0 mm 5 m/S 752 mmHg 77%
09:00 +13°C° 0 mm 5 m/S 752 mmHg 75%
10:00 +14°C° 0 mm 5 m/S 752 mmHg 73%
11:00 +14°C° 0 mm 5 m/S 752 mmHg 70%
12:00 +15°C° 0 mm 5 m/S 752 mmHg 67%
13:00 +16°C° 0 mm 5 m/S 752 mmHg 65%
14:00 +15°C° 0 mm 5 m/S 752 mmHg 68%
15:00 +15°C° 0 mm 4 m/S 752 mmHg 70%
16:00 +14°C° 0 mm 3 m/S 752 mmHg 73%
17:00 +14°C° 0 mm 3 m/S 752 mmHg 75%
18:00 +13°C° 0 mm 3 m/S 752 mmHg 77%
19:00 +12°C° 0 mm 3 m/S 752 mmHg 80%
20:00 +12°C° 0 mm 3 m/S 752 mmHg 80%
21:00 +11°C° 0 mm 3 m/S 753 mmHg 80%
22:00 +11°C° 0 mm 3 m/S 753 mmHg 81%
23:00 +11°C° 0 mm 3 m/S 753 mmHg 82%

31 Oktober, Samstag

Zeit Temperatur Niederschläge Wind Luftdruck Luftfeuchtigkeit
00:00 +10°C° 0 mm 2 m/S 752 mmHg 83%
01:00 +10°C° 0 mm 2 m/S 752 mmHg 84%
02:00 +10°C° 0 mm 2 m/S 752 mmHg 83%
03:00 +10°C° 0 mm 2 m/S 752 mmHg 83%
04:00 +10°C° 0 mm 2 m/S 752 mmHg 82%
05:00 +9°C° 0 mm 2 m/S 752 mmHg 82%
06:00 +9°C° 0 mm 2 m/S 752 mmHg 82%
07:00 +9°C° 0 mm 2 m/S 751 mmHg 81%
Mehr zeigen

Wir brauchen deine Erlaubnis

Meteoprog und unser Service Anbieter werden persönliche Daten aufbewahren, so wie Cookies, Geräte Bezeichnung oder ähnliche Technologien von deinem Gerät und Prozess, so wie Persönliche Daten Inhalte und Werbungen, genauso wie social Media und den Verkehr zu analysieren.

  • Aufbewahrung und/oder Zugang zu deiner Geräte Informationen.

    Cookies, Geräte Bezeichnung oder andere Informationen, können aufbewahrt oder Zugang zu deinem Gerät erhalten, für den Grund, der oben angegeben wird.

  • Personalisierte Werbung und Inhalte, Messungen, Einblick in das Publikum und Produkt Entwicklung.

    Werbungen und Inhalte können personalisiert werden, basierend auf ein Profil. Mehr Daten können besser personalisierte Werbungen und Inhalte hinzufügen. Werbung und Inhalte können gezeigt und gemessen werden. Einblicke über das Publikum, welche die Werbung gesehen haben und den Inhalt, können abgeleitet werden. So wie Daten können genutzt werden, um es zu verbessern oder die Benutzer Erfahrung zu verbessern das System und die Software.

Wenn du “Ich stimme zu” klickst, erlaubst du uns, die Cookies zu benutzen die Geräte Bezeichnung, den Web oder ähnliche Technologien zu benutzen. Deine Settings, können in deinem Gerät bei deinem Browser geändert werden.

Für den bestimmten Zweck, berechtigten Interessen beruhen darauf, mehr als auf den Inhalt. Du kannst mehr darüber in unseren Privaten und Cookie Politik lesen.